Regional Weather Roundup
Issued by NWS

Home | Current Version | Previous Version | Text Only | Print | Product List | Glossary On
Versions: 1 2 3 4 5 6 7 8 9 10 11 12 13 14 15 16 17 18 19 20 21 22 23 24 25 26 27 28 29 30 31 32 33 34 35 36 37 38 39 40 41 42 43 44 45 46 47 48 49 50
000
ASUS43 KMKX 081921
RWRWI

WISCONSIN REGIONAL WEATHER ROUNDUP
NATIONAL WEATHER SERVICE MILWAUKEE/SULLIVAN WI
100 PM CST THU DEC 08 2016

NOTE: "FAIR" INDICATES FEW OR NO CLOUDS BELOW 12,000 FEET WITH NO
SIGNIFICANT WEATHER AND/OR OBSTRUCTIONS TO VISIBILITY.

WIZ001-002-006>008-014>016-023>028-082000-
NORTHWEST WISCONSIN

CITY           SKY/WX    TMP DP  RH WIND       PRES   REMARKS
SUPERIOR ARPT  CLOUDY    27  17  66 NW14      30.31R WCI  15
ASHLAND        CLOUDY    27  19  72 NW10G18   30.24R WCI  17
HAYWARD        CLOUDY    24  15  68 VRB6G17   30.25R WCI  17
SIREN          PTSUNNY   25  15  67 NW14G20   30.31R WCI  13
CUMBERLAND     CLOUDY    23  14  68 NW12G18   30.28R WCI  12
RICE LAKE      CLOUDY    24  16  71 W12G17    30.30R WCI  13
CHETEK         CLOUDY    24  16  74 NW6       30.29R WCI  16
LADYSMITH      FLURRIES  24  17  74 W12       30.25R WCI  13
EAU CLAIRE     CLOUDY    24  15  68 NW15      30.29R WCI  11
MENOMONIE      CLOUDY    26  17  68 W15G21    30.31R WCI  14
NEW RICHMOND   CLOUDY    25  16  70 NW15G21   30.32S WCI  12
OSCEOLA        FLURRIES  25  17  71 W13G20    30.36S WCI  14
$$

WIZ003>005-009-010-017-018-082000-
NORTH CENTRAL WISCONSIN

CITY           SKY/WX    TMP DP  RH WIND       PRES   REMARKS
MANITOWISH WTR CLOUDY    25  21  85 NW9G17    30.13R WCI  15
ARBOR VITAE    CLOUDY    27  20  77 NW9       30.12R WCI  17
WOODRUFF       CLOUDY    27  20  77 NW9       30.12R WCI  17
RHINELANDER    LGT SNOW  26  19  74 W15G21    30.11R WCI  14
EAGLE RIVER    FLURRIES  26  17  69 NW12      30.09R WCI  16
LAND O LAKES   LGT SNOW  25  21  83 N10G21    30.11R WCI  15
PHILLIPS       CLOUDY    24  16  70 NW9G20    30.17R WCI  14
TOMAHAWK       CLOUDY    26  17  68 W13G18    30.15S WCI  14
MEDFORD        FLURRIES  22  16  76 NW12      30.18R WCI  11
MERRILL        CLOUDY    26  16  65 NW13G25   30.17R WCI  15
$$

WIZ029-030-035-036-043>047-082000-
CENTRAL WISCONSIN

CITY           SKY/WX    TMP DP  RH WIND       PRES   REMARKS
WAUSAU         CLOUDY    25  15  66 NW14G22   30.16R WCI  13
MOSINEE        CLOUDY    25  18  74 NW15G21   30.18R WCI  12
MARSHFIELD     CLOUDY    24  16  71 NW15      30.20R WCI  11
STEVENS POINT  CLOUDY    24  15  69 W9G20     30.20R WCI  14
WAUPACA        CLOUDY    29  18  63 W12G21    30.19R WCI  19
WAUTOMA        FLURRIES  24  18  77 W16       30.23R WCI  11
WISC RAPIDS    CLOUDY    25  17  72 NW12G18   30.23R WCI  14
CAMP DOUGLAS   FLURRIES  23  16  74 NW16      30.26R WCI  10
$$

WIZ011>013-019>022-031-037>040-048>050-082000-
NORTHEAST WISCONSIN

CITY           SKY/WX    TMP DP  RH WIND       PRES   REMARKS
ANTIGO         FLURRIES  25  18  77 NW15G24   30.11R WCI  12
SHAWANO        PTSUNNY   32  18  55 W10G20    30.14R WCI  24
OCONTO         PTSUNNY   32  17  53 NW10G18   30.10S WCI  24
STURGEON BAY   CLOUDY    32  20  61 NW18      30.08R WCI  20
GREEN BAY      FLURRIES  33  21  61 W15G24    30.13R WCI  23
MANITOWOC      SUNNY     30  20  66 NW16G24   30.13R WCI  19
APPLETON       PTSUNNY   27  16  63 W17       30.14R WCI  14
CLINTONVILLE   PTSUNNY   30  18  59 NW14G21   30.15S WCI  20
OSHKOSH        CLOUDY    26  17  68 NW20G28   30.17R WCI  12
$$

WIZ032>034-041-042-053>061-082000-
SOUTHWEST WISCONSIN

CITY           SKY/WX    TMP DP  RH WIND       PRES   REMARKS
LA CROSSE      CLOUDY    26  16  65 NW14      30.33R WCI  14
SPARTA         FLURRIES  23  17  76 NW13      30.30S WCI  12
VIROQUA        CLOUDY    22  16  79 NW15      30.27S WCI   8
BOSCOBEL       CLOUDY    25  15  66 W7G20     30.34S WCI  17
PRAIRIE DU CHI CLOUDY    24  15  67 W10       30.36R WCI  14
PLATTEVILLE    CLOUDY    22  17  81 W12G21    30.32S WCI  10
$$

WIZ056-057-062-063-064-067-068-082000-
SOUTH CENTRAL WISCONSIN

CITY           SKY/WX    TMP DP  RH WIND       PRES   REMARKS
REEDSBURG      CLOUDY    22  16  76 W13G21    30.27R WCI  10
BARABOO/DELLS  CLOUDY    22  15  74 W10G20    30.26R WCI  12
LONE ROCK      CLOUDY    23  14  68 W12       30.32R WCI  12
MINERAL POINT  CLOUDY    23  18  80 W17       30.28S WCI   9
MADISON        FLURRIES  22  14  71 W12G18    30.26R WCI  10
MIDDLETON      CLOUDY    24  17  75 W15G24    30.27R WCI  11
WATERTOWN      CLOUDY    23  16  75 W15G21    30.23S WCI  10
MONROE         FLURRIES  21  16  79 W13G24    30.27S WCI   9
JANESVILLE     CLOUDY    23  16  74 NW15G22   30.27S WCI  10
$$

WIZ051-052-058>065-066-070>072-082000-
SOUTHEAST WISCONSIN

CITY           SKY/WX    TMP DP  RH WIND       PRES   REMARKS
MILWAUKEE      PTSUNNY   25  13  60 W24G32    30.21R WCI   9
WAUKESHA       CLOUDY    21  12  68 W14G24    30.22R WCI   8
MILWAUKEE/TIMM CLOUDY    23  12  63 W22G28    30.21S WCI   8
RACINE         CLOUDY    23  12  62 W15G31    30.22S WCI  10
BURLINGTON     CLOUDY    27  20  75 W15G25    30.24R WCI  15
KENOSHA        CLOUDY    23  14  68 W23G32    30.23R WCI   7
FOND DU LAC    PTSUNNY   25  15  66 NW20G28   30.18R WCI  11
SHEBOYGAN      MOSUNNY   27  17  66 NW17G31   30.15R WCI  14
WEST BEND      NOT AVBL
JUNEAU         CLOUDY    23  15  73 W8G18     30.23R WCI  14
$$

LSZ147-162-082000-
LAKE SUPERIOR

STATION/POSITION TIME  TEMP    WIND        PRES    WAVE
                       AIR SEA DIR/SP/G            HT/PER
                 (UTC) (F)     (DEG/KT/KT) (MB)    (FT/S)
DEVILS ISLAND    1900   27     310/ 17/ 23 1024.9R
PORT WING        1830   27     310/ 16/ 20 1024.7R
SAXON HARBOR     1830   30     340/ 19/ 23 1022.7R
$$

LMZ867-665-643>646-082000-
LAKE MICHIGAN

STATION/POSITION TIME  TEMP    WIND        PRES    WAVE
                       AIR SEA DIR/SP/G            HT/PER
                 (UTC) (F)     (DEG/KT/KT) (MB)    (FT/S)
CHAMBERS ISLAND  1840   33     300/  9/ 17 1017.6R
NORTHPORT PIER   1832   33     300/ 17/ 27 1017.3S
SISTER BAY       1821   33     320/ 22/ 25   N/A
ALGOMA LAKESHORE 1836          300/ 12/ 23   N/A
KEWAUNEE LAKESHO 1854   31     310/ 14/ 19 1018.6R
SHEBOYGAN LAKESH 1900   26     300/ 23/ 28 1021.5R
PORT WASHINGTON  1908   26     280/ 12/ 27 1022.4
MILWAUKEE LAKESH 1900   24     290/ 23/ 29   N/A
KENOSHA   LAKESH 1900   22     290/ 17/ 29 1023.4
$$

TC  - TEMPERATURE IN CELSIUS
VSB - VISIBILITY IN STATUTE MILES
WCI - WIND CHILL INDEX
HX  - HEAT INDEX




USA.gov is the U.S. government's official web portal to all federal, state and local government web resources and services.